Weather Roundup
Issued by NWS

Home | Current Version | Previous Version | Text Only | Print | Product List | Glossary On
Versions: 1 2 3 4 5 6 7 8 9 10 11 12 13 14 15 16 17 18 19 20 21 22 23 24 25 26 27 28 29 30 31 32 33 34 35 36 37 38 39 40 41 42 43 44 45 46 47 48 49 50
000
NZUS93 KARX 252359
HRRWXR

CURRENT HOURLY OBSERVATIONS ACROSS
MUCH OF THE UPPER MISSISSIPPI VALLEY
NATIONAL WEATHER SERVICE LA CROSSE WI
700 PM CDT WED MAY 25 2016


...SOUTHEAST MINNESOTA...


CITY           SKY/WX    TMP DP  RH WIND       PRES   REMARKS
ROCHESTER      PTSUNNY   74  67  78 S13       29.82S
ROCHESTER/MAYO FAIR      75  65  70 S7        29.82S
WINONA         MOSUNNY   75  63  64 W3        29.81S
AUSTIN         SUNNY     75  63  64 S8        29.81S
ALBERT LEA     MOSUNNY   81  57  44 SW8       29.80S
DODGE CENTER   CLOUDY    75  64  69 SW8       29.82S
PRESTON        SUNNY     74  64  70 SW7       29.84S
OWATONNA       SUNNY     79  63  57 W5        29.80S
FARIBAULT      SUNNY     79  63  57 W6        29.80S
$$

...ELSEWHERE IN MINNESOTA...


CITY           SKY/WX    TMP DP  RH WIND       PRES   REMARKS
MINNEAPOLIS    CLOUDY    75  63  66 E5        29.79S
INTNL FALLS    LGT RAIN  62  55  77 E9        29.84F
DULUTH         CLOUDY    50  48  93 E17       29.89F
RED WING       MOSUNNY   73  64  73 CALM      29.79S
REDWOOD FALLS  MOSUNNY   78  58  49 SW13      29.77S
MANKATO        MOSUNNY   81  61  50 W8        29.79R
WORTHINGTON    SUNNY     77  60  55 W6        29.82R
FAIRMONT       MOSUNNY   81  52  36 W13       29.80R
$$

...SOUTHWEST WISCONSIN...


CITY           SKY/WX    TMP DP  RH WIND       PRES   REMARKS
LA CROSSE      MOSUNNY   77  63  61 SW10      29.80S
PRAIRIE DU CHI PTSUNNY   80  59  48 SW7       29.81S
BOSCOBEL       MOSUNNY   82  61  48 SW12G20   29.81S
LONE ROCK      NOT AVBL
PLATTEVILLE    CLOUDY    81  60  48 SW17      29.84S
FORT MC COY    PTSUNNY   76  68  76 SW3       29.83S
CAMP DOUGLAS   CLOUDY    66  66 100 NE5       29.84R
MAUSTON-NEW LI CLOUDY    68  66  91 NW8       29.84R
VIROQUA        FAIR      78  62  58 SW14G21   29.84S
WIS DELLS      CLOUDY    75  62  64 W5        29.82S
$$

...ELSEWHERE IN WISCONSIN...


CITY           SKY/WX    TMP DP  RH WIND       PRES   REMARKS
MILWAUKEE      LGT RAIN  54  52  93 NE8       29.90S FOG
MADISON        CLOUDY    75  66  73 SE12      29.82F
GREEN BAY      CLOUDY    62  58  86 NE14      29.91F
EAU CLAIRE     NOT AVBL
BLACK RVR FLS  FAIR      77  64  63 SW9G16    29.81S
MEDFORD        CLOUDY    62  62 100 E9G36     29.85R
WAUSAU         RAIN      65  50  59 E15       29.83F
WIS RAPIDS     CLOUDY    67  61  81 SE12      29.87R
MARSHFIELD     CLOUDY    66  62  87 SE13      29.84S
RICE LAKE      DRIZZLE   63  61  92 CALM      29.86S
$$

...NORTHEAST IOWA...


CITY           SKY/WX    TMP DP  RH WIND       PRES   REMARKS
WATERLOO       MOSUNNY   79  59  50 SW10      29.83S
DUBUQUE        PTSUNNY   78  59  51 SW17G25   29.84S
DECORAH        MOSUNNY   77  63  61 SW5       29.83S
MASON CITY     SUNNY     78  65  63 S10       29.83S
CHARLES CITY   SUNNY     79  63  57 SW12      29.84S
OELWEIN        SUNNY     81  59  47 SW16      29.84S
$$

...ELSEWHERE IN IOWA...


CITY           SKY/WX    TMP DP  RH WIND       PRES   REMARKS
DES MOINES     MOSUNNY   79  62  56 CALM      29.85S
IOWA CITY      SUNNY     82  58  43 SW12      29.86F
FORT DODGE     MOSUNNY   77  61  57 S16       29.84R
MARSHALLTOWN   PTSUNNY   77  60  55 SW10      29.84F
CEDAR RAPIDS   SUNNY     81  60  48 SW13G22   29.84S
$$

...NORTHERN ILLINOIS...


CITY           SKY/WX    TMP DP  RH WIND       PRES   REMARKS
CHICAGO-OHARE  TSTM      65  64  97 SE12      29.91R FOG
CHICAGO-MIDWAY TSTM      67  64  90 NW20      29.92R FOG
MOLINE         MOSUNNY   83  59  44 SW7       29.85R
ROCKFORD       CLOUDY    73  63  70 SE8       29.87S
PEORIA         SUNNY     81  64  56 SW13      29.88R
$$

NOTE: "FAIR" INDICATES FEW OR NO CLOUDS BELOW 12,000 FEET WITH NO
SIGNIFICANT WEATHER AND/OR OBSTRUCTIONS TO VISIBILITY. WIND
SPEEDS ARE IN MILES-PER-HOUR.




USA.gov is the U.S. government's official web portal to all federal, state and local government web resources and services.